Starlink 5636

operational
NORAD ID: 55454 Int'l Des: 2023-015 Owner: SPXS Country: US Constellation: starlink
LEOCIRCULAR

Starlink 5636について

説明を読み込み中...

リアルタイム位置

3D地球を読み込み中...

次回通過

高度履歴

Altitude vs Time

uPlot chart will show altitude changes over time

軌道要素

1 55454U 23015F 25304.00489669 .00000723 00000-0 68556-4 0 9996
2 55454 43.0018 310.8591 0000848 277.1929 82.8817 15.02532473151244
Epoch: Oct 31, 2025 • Age: 28 hours

現在のステータス

高度 561.6 km
速度 7.59 km/s
衛星直下点 37.20°N, 26.58°W
打ち上げ日 Feb 2, 2023
運用期間 2.7 years
タイプ internet

技術仕様

分類 Payload
質量 305.00 kg
乾燥質量 290.00 kg
総質量 305.00 kg
長さ 0.20 m
直径 2.80 m
スパン 9.00 m
形状 Box + pan
製造者 SPXS
バスタイプ Starlink
フェーズステータス In Orbit
所有者/国 SPXS/US

大規模コンステレーション

Loading constellations...